星链-31797 (STARLINK-31797 )

导读

STARLINK-31797是美国太空探索技术公司Starlink卫星互联网项目的组成部分,于2024年5月3日发射入轨,属于该项目低轨卫星星座的组网卫星。它将为全球提供高速宽带互联网服务,尤其覆盖偏远地区,助力全球网络互联互通,进一步完善星链星座的通信覆盖能力,推动低轨卫星互联网部署进程。

Basic Information
目录编号:
59634
目录名称:
STARLINK-31797
国际标识:
2024-082D
轨道中心:
EARTH
卫星名称:
星链-31797
卫星全名:
星链-31797 (STARLINK-31797 )
卫星状态:
在轨 (已飞行776 天)
发射日期:
2024-05-03 UTC
国别 :
美国 (US)
星等 :
--
Orbit Information
数据来源 国际轨道数据 AOE轨道数据
星历时间 2026-06-17T16:14:52+0800
19小时前
查看轨道信息
2026-06-12T15:00:00+0800
5天前
查看轨道信息
半长轴 6861.183km 6861.212km
偏心率 0.0000716 0.0000023
轨道倾角 43.004° 43.007°
近地点辐角 238.376° 122.512°
升交点赤经 296.938° 325.468°
平近点角 121.702° 142.685°
近地点 482.554km 483.059km
远地点 483.538km 483.091km
周期 94.267分钟 94.267分钟
每日圈数 15.275812 15.275714
Detailed Information
固有亮度:
5
最大亮度:
1.5
卫星平台:
Starlink v2.0 mini
覆盖范围:
全球
运营商:
太空探索技术公司
运营商所在国:
美国
制造商(研发单位):
太空探索技术公司
制造商所在国:
美国
使用方式:
暂无
Satellite Introduction
星链(Starlink)计划是由太空探索技术公司(SpaceX)提出的一个巨型低轨卫星互联网星座项目,计划在2019年至2024年间在太空搭建由约1.2万颗卫星组成的“星链”网络,其中1584颗将部署在地球上空550千米处的近地轨道,并从2020年开始工作。该卫星仍在工作。
2D Orbit Map
3D Orbit Map
Orbit Altitude Analysis Chart
Orbit Inclination Analysis Chart
Orbit Comprehensive Analysis Chart
View Comprehensive Chart